Tributaries of Elbe river

river Ploučnice - water gauge Benešov nad Ploučnicí

Date and time (UTC) H (cm) Q (m³/s)
19. 5. 2021 04:20 87 8.2
19. 5. 2021 04:00 87 8
19. 5. 2021 03:00 88 9
19. 5. 2021 02:00 86 8
19. 5. 2021 01:00 87 8
19. 5. 2021 00:00 87 8
18. 5. 2021 23:00 88 9
18. 5. 2021 22:00 87 8
18. 5. 2021 21:00 87 8
18. 5. 2021 20:00 87 8
18. 5. 2021 19:00 86 8
18. 5. 2021 18:00 87 8
18. 5. 2021 17:00 87 8
18. 5. 2021 16:00 86 8

H - water level, Q - discharge

river Ohře - water gauge Louny

Date and time (UTC) H (cm) Q (m³/s)
19. 5. 2021 04:20 237 44.3
19. 5. 2021 04:00 238 45
19. 5. 2021 03:00 238 45
19. 5. 2021 02:00 238 45
19. 5. 2021 01:00 239 45
19. 5. 2021 00:00 239 45
18. 5. 2021 23:00 237 44
18. 5. 2021 22:00 237 44
18. 5. 2021 21:00 236 44
18. 5. 2021 20:00 235 43
18. 5. 2021 19:00 233 42
18. 5. 2021 18:00 230 40
18. 5. 2021 17:00 228 39
18. 5. 2021 16:00 228 39

H - water level, Q - discharge

Vraňany

Date and time (UTC) H (cm) Q (m³/s)
19. 5. 2021 04:20 205 327
19. 5. 2021 04:00 205 327
19. 5. 2021 03:00 205 327
19. 5. 2021 02:00 205 327
19. 5. 2021 01:00 206 328
19. 5. 2021 00:00 203 323
18. 5. 2021 23:00 207 330
18. 5. 2021 22:00 214 341
18. 5. 2021 21:00 210 335
18. 5. 2021 20:00 203 323
18. 5. 2021 19:00 203 323
18. 5. 2021 18:00 201 320
18. 5. 2021 17:00 218 348
18. 5. 2021 16:00 217 346

H - water level, Q - discharge

river Jizera - water gauge Předměřice

Date and time (UTC) H (cm) Q (m³/s)
19. 5. 2021 04:20 173 25
19. 5. 2021 04:00 173 25
19. 5. 2021 03:00 173 25
19. 5. 2021 02:00 172 25
19. 5. 2021 01:00 171 24
19. 5. 2021 00:00 170 24
18. 5. 2021 23:00 171 24
18. 5. 2021 22:00 171 24
18. 5. 2021 21:00 172 25
18. 5. 2021 20:00 172 25
18. 5. 2021 19:00 173 25
18. 5. 2021 18:00 173 25
18. 5. 2021 17:00 174 26
18. 5. 2021 16:00 174 26

H - water level, Q - discharge

river Cidlina - water gauge Sány

Date and time (UTC) H (cm) Q (m³/s)
19. 5. 2021 04:20 43 2.6
19. 5. 2021 04:00 43 3
19. 5. 2021 03:00 44 3
19. 5. 2021 02:00 44 3
19. 5. 2021 01:00 44 3
19. 5. 2021 00:00 43 3
18. 5. 2021 23:00 44 3
18. 5. 2021 22:00 44 3
18. 5. 2021 21:00 43 3
18. 5. 2021 20:00 44 3
18. 5. 2021 19:00 44 3
18. 5. 2021 18:00 44 3
18. 5. 2021 17:00 44 3
18. 5. 2021 16:00 44 3

H - water level, Q - discharge

river Orlice - water gauge Týniště nad Orlicí

Date and time (UTC) H (cm) Q (m³/s)
19. 5. 2021 04:00 143 23.7
19. 5. 2021 03:00 144 24
19. 5. 2021 02:00 146 24
19. 5. 2021 01:00 147 25
19. 5. 2021 00:00 143 24
18. 5. 2021 23:00 141 23
18. 5. 2021 22:00 142 24
18. 5. 2021 21:00 143 24
18. 5. 2021 20:00 143 24
18. 5. 2021 19:00 144 24
18. 5. 2021 18:00 144 24
18. 5. 2021 17:00 144 24
18. 5. 2021 16:00 143 24

H - water level, Q - discharge
Source data
Labe Basin Vltava Basin Povodí Moravy ČHMÚ